Flag for Guinea Weather past 2 weeks in Boké, Guinea

Now
84 °F

Broken clouds.


Feels Like: 94 °F
Forecast: N/A
Wind: 9 mph from Northwest

Location: Conakry / Gbessia

Current Time: May 29, 2015 at 7:06:06 PM

Latest Report: May 29, 2015 at 6:00 PM


Visibility: N/A

Pressure: 29.83 "Hg

Humidity: 79%

Dew point: 77 °F

Location of BokéLocation

Historic Weather in Boké — Graph

°F

Boké temperature yesterday

Maximum temperature yesterday: 91 °F (at 3:00 PM)
Minimum temperature yesterday: 81 °F (at 7:00 AM)
Average temperature yesterday: 85 °F

Past Weeks' High & Low Weather Summary

 TemperatureHumidityPressure
High93 °F (May 19, 2:00 PM)100% (May 15, 5:00 AM)30.04 "Hg (May 15, 5:00 AM)
Low73 °F (May 21, 5:00 AM)49% (May 18, 2:00 PM)29.80 "Hg (May 15, 4:00 PM)
Average84 °F78%29.90 "Hg
* Reported May 14 10:00 PM — May 29 6:00 PM, Boké, Weather by CustomWeather, © 2015

Note: Actual official high and low records may vary slightly from our data, if they occured in-between our weather recording intervals... More about our weather records

Advertising

Boké weather history for previous 24 hours

 ConditionsComfort  
Time TempWeatherWind HumidityBarometerVisibility
6:00 PM
Fri, May 29
84 °FBroken clouds.9 mph79%29.83 "HgN/A
5:00 PM84 °FBroken clouds.14 mph79%29.80 "HgN/A
4:00 PM82 °FBroken clouds.12 mph84%29.83 "HgN/A
3:00 PM82 °FPartly sunny.9 mph84%29.89 "HgN/A
2:00 PM84 °FThunderstorms. Partly sunny.9 mph74%29.89 "HgN/A
1:00 PM86 °FThunderstorms. Broken clouds.12 mph70%29.89 "HgN/A
12:00 PM90 °FThunderstorms. Partly sunny.12 mph67%29.92 "HgN/A
11:00 AM88 °FScattered clouds.12 mph66%29.89 "HgN/A
10:00 AM86 °FPartly sunny.9 mph75%29.92 "HgN/A
9:00 AM84 °FScattered clouds.12 mph84%29.89 "HgN/A
8:00 AM84 °FBroken clouds.9 mph84%29.89 "HgN/A
7:00 AM82 °FBroken clouds.9 mph84%29.89 "HgN/A
6:00 AM84 °FPartly cloudy.7 mph84%29.86 "HgN/A
5:00 AM82 °FPartly cloudy.9 mph89%29.86 "HgN/A
3:00 AM82 °FPartly cloudy.5 mph94%29.86 "HgN/A
2:00 AM84 °FPartly cloudy.7 mph89%29.86 "HgN/A
1:00 AM84 °FPassing clouds.7 mph89%29.89 "HgN/A
12:00 AM84 °FPassing clouds.5 mph89%29.89 "HgN/A
11:00 PM
Thu, May 28
84 °FPassing clouds.9 mph84%29.89 "HgN/A
10:00 PM84 °FPassing clouds.7 mph84%29.89 "HgN/A
9:00 PM84 °FPassing clouds.9 mph84%29.86 "HgN/A
8:00 PM84 °FPassing clouds.12 mph79%29.83 "HgN/A
7:00 PM84 °FPartly sunny.12 mph79%29.83 "HgN/A
Weather by CustomWeather, © 2015

See weather overviewHow to use our weather pages